{"data":{"norad_id":60475,"epoch":"2026-09-22T16:38:26.996928Z","epoch_age_seconds":96777,"freshness":"FRESH","line1":"1 60475U 24149H   26265.69336802  .00005995  00000+0  24843-3 0  9991","line2":"2 60475  97.3664 340.0626 0001397 294.7733  65.3359 15.24268320116658","mean_motion":15.2426832,"eccentricity":0.0001397,"inclination_deg":97.3664,"raan_deg":340.0626,"arg_perigee_deg":294.7733,"mean_anomaly_deg":65.3359,"bstar":0.00024843,"rev_number":11665,"period_min":94.471556031552,"perigee_km":492.02351134684,"apogee_km":493.94330238852,"semimajor_km":6871.1204068677,"source":"CELESTRAK","updated_at":"2026-09-23T09:00:20.653177Z"}}